Location: Bosdarros
(43.2167°N, 0.3667°W)
Time: 16:40:36
(UTC+00:00)

SL-4 R/B - Pass Details

Date: 22 April 2021
Orbit: 427 x 663 km, 51.6° (Epoch: 12 May)

Event Time Altitude Azimuth Distance (km) Brightness Sun altitude
Rises 21:22:33 0° 257° (WSW) 2,783 6.0 -23.7°
Reaches altitude 10° 21:24:49 10° 263° (W) 1,925 5.2 -24.0°
Maximum altitude 21:29:06 46° 338° (NNW) 834 3.2 -24.5°
Enters shadow 21:33:35 10° 52° (NE) 2,020 4.9 -25.0°
